User: anonymous   Login
Location: Unspecified
(0.0000°N, 0.0000°E)
Time: 20:02:57
(UTC+01:00)
Language:

CZ-4B DEB - Orbit

View from above orbital plane
View from above orbital plane
View from above satellite
View from above satellite

Ground track
Ground track

The orbit data is extracted from the following two-line orbital elements,

1 33411U 08053D   17315.40721526  .11288782  24851-5  12794-2 0  9999
2 33411  97.3632  13.7523 0007936 279.3174  80.7226 16.36985159499531
Epoch (UTC): 11 November 2017 09:46:23
Eccentricity: 0.0007936
inclination: 97.3632°
perigee height: 168 km
apogee height: 179 km
right ascension of ascending node: 13.7523°
argument of perigee: 279.3174°
revolutions per day: 16.36985159
mean anomaly at epoch: 80.7226°
orbit number at epoch: 49953

The dashed part of the orbit path shows where the satellite is in the earth's shadow,  

DLR